DL9MFL-6 Weather Reports


time (UTC)temp
C
wind
direction
speed
KPH
gust
KPH
rain 1hr
cm
rain 24hr
cm
rain mn
cm
humidity
%
barometer
mb
20260505053929 8 126 1.6 4.8 0.00 0.15 0.00 94 1007.2
20260505053829 8 126 1.6 4.8 0.00 0.15 0.00 94 1007.2
20260505053729 8 126 1.6 4.8 0.00 0.15 0.00 94 1007.2
20260505053629 8 126 1.6 4.8 0.00 0.15 0.00 94 1007.1
20260505053529 8 101 1.6 4.8 0.00 0.15 0.00 94 1007.1
20260505053500 8 99 0.0 3.2 0.00 0.15 0.00 94 1007.1
20260505053327 8 99 0.0 3.2 0.00 0.15 0.00 94 1007.1
20260505053226 8 99 0.0 3.2 0.00 0.15 0.00 94 1007.1
20260505053124 8 99 1.6 3.2 0.00 0.15 0.00 95 1007.1
20260505053023 8 99 1.6 4.8 0.00 0.15 0.00 94 1007.1
20260505052920 8 99 1.6 6.4 0.00 0.15 0.00 94 1007.1
20260505052821 8 99 1.6 6.4 0.00 0.15 0.00 95 1007.1
20260505052721 8 99 1.6 6.4 0.00 0.15 0.00 95 1007.1
20260505052619 8 98 1.6 6.4 0.00 0.15 0.00 95 1007.1
20260505052517 8 98 1.6 6.4 0.00 0.15 0.00 95 1007.1
20260505052411 8 98 1.6 6.4 0.00 0.15 0.00 95 1007.1
20260505052311 8 98 1.6 6.4 0.00 0.15 0.00 94 1007.1
20260505052211 8 98 1.6 6.4 0.00 0.15 0.00 94 1007.2
20260505052110 8 99 1.6 6.4 0.00 0.15 0.00 94 1007.2
20260505052037 8 99 0.0 6.4 0.00 0.15 0.00 94 1007.1
20260505052010 8 98 0.0 6.4 0.00 0.15 0.00 94 1007.1
20260505051907 7 78 0.0 3.2 0.00 0.15 0.00 94 1007.1
20260505051807 7 77 0.0 3.2 0.00 0.15 0.00 94 1007.1
20260505051803 7 77 0.0 3.2 0.00 0.15 0.00 94 1007.1
20260505051752 7 77 0.0 3.2 0.00 0.15 0.00 95 1007.1
20260505051748 7 77 0.0 3.2 0.00 0.15 0.00 94 1007.1
20260505051507 7 77 0.0 3.2 0.00 0.15 0.00 94 1007.1
20260505051400 7 77 0.0 3.2 0.00 0.15 0.00 94 1007.1
20260505051301 7 77 0.0 3.2 0.00 0.15 0.00 94 1007.1
20260505051201 7 77 0.0 3.2 0.00 0.15 0.00 94 1007.1
20260505051101 7 77 0.0 3.2 0.00 0.15 0.00 94 1007.1
20260505051036 7 77 1.6 3.2 0.00 0.15 0.00 94 1007.1
20260505051005 7 77 1.6 3.2 0.00 0.15 0.00 94 1007.1
20260505050901 7 77 1.6 3.2 0.00 0.15 0.00 94 1007.1
20260505050801 7 77 1.6 3.2 0.00 0.15 0.00 94 1007.2
20260505050755 7 77 0.0 3.2 0.00 0.15 0.00 94 1007.2
20260505050750 7 77 1.6 3.2 0.00 0.15 0.00 94 1007.2
20260505050746 7 77 0.0 3.2 0.00 0.15 0.00 94 1007.2
20260505050501 7 77 0.0 3.2 0.00 0.15 0.00 94 1007.2
20260505050401 7 77 0.0 3.2 0.00 0.15 0.00 94 1007.2
20260505050302 7 77 0.0 3.2 0.00 0.15 0.00 94 1007.2
20260505050258 7 67 0.0 3.2 0.00 0.15 0.00 93 1007.3
20260505050249 7 73 0.0 3.2 0.00 0.15 0.00 94 1007.2
20260505050245 7 71 0.0 3.2 0.00 0.15 0.00 93 1007.3
20260505041701 6 20 0.0 0.0 0.00 0.15 0.00 92 1007.4
20260505041601 6 20 0.0 0.0 0.00 0.15 0.00 92 1007.4
20260505041500 6 20 0.0 0.0 0.00 0.15 0.00 92 1007.4
20260505041400 6 20 0.0 0.0 0.00 0.15 0.00 92 1007.4
20260505041301 6 20 0.0 0.0 0.00 0.15 0.00 92 1007.4
20260505041202 6 20 0.0 0.0 0.00 0.15 0.00 92 1007.4
20260505041102 6 20 0.0 1.6 0.00 0.15 0.00 92 1007.4
20260505041000 6 20 0.0 1.6 0.00 0.15 0.00 92 1007.4
20260505040900 6 20 0.0 1.6 0.00 0.15 0.00 92 1007.5
20260505040758 6 20 0.0 1.6 0.00 0.15 0.00 92 1007.5
20260505040656 6 20 0.0 1.6 0.00 0.15 0.00 92 1007.5
20260505040528 6 20 0.0 1.6 0.00 0.15 0.00 92 1007.5
20260505040451 6 20 0.0 1.6 0.00 0.15 0.00 92 1007.6
20260505040351 6 20 0.0 1.6 0.00 0.15 0.00 92 1007.5
20260505040251 6 20 0.0 1.6 0.00 0.15 0.00 91 1007.5
20260505040150 6 20 0.0 1.6 0.00 0.15 0.00 91 1007.5
20260505040029 6 20 0.0 1.6 0.00 0.15 0.00 91 1007.5
20260505035951 6 20 0.0 1.6 0.00 0.15 0.00 91 1007.5
20260505035851 6 20 0.0 1.6 0.00 0.15 0.00 91 1007.5
20260505035749 6 20 0.0 1.6 0.00 0.15 0.00 91 1007.5
20260505035649 6 20 0.0 1.6 0.00 0.15 0.00 91 1007.5
20260505035529 6 20 0.0 1.6 0.00 0.15 0.00 91 1007.5
20260505035448 6 20 0.0 1.6 0.00 0.15 0.00 91 1007.5
20260505035346 6 20 0.0 1.6 0.00 0.15 0.00 91 1007.4
20260505035246 6 20 0.0 1.6 0.00 0.15 0.00 91 1007.4
20260505035144 6 20 0.0 1.6 0.00 0.15 0.00 91 1007.5
20260505035029 6 20 0.0 1.6 0.00 0.15 0.00 91 1007.4
20260505034945 6 20 0.0 1.6 0.00 0.15 0.00 91 1007.5
20260505034845 6 20 0.0 1.6 0.00 0.15 0.00 91 1007.5
20260505034745 6 20 0.0 1.6 0.00 0.15 0.00 90 1007.5
20260505034645 6 20 0.0 1.6 0.00 0.15 0.00 90 1007.5
20260505034528 6 20 0.0 1.6 0.00 0.15 0.00 90 1007.5
20260505034444 6 20 0.0 1.6 0.00 0.15 0.00 90 1007.5
20260505034344 6 20 0.0 1.6 0.00 0.15 0.00 90 1007.5
20260505034244 6 20 0.0 1.6 0.00 0.15 0.00 90 1007.5
20260505034145 6 20 0.0 1.6 0.00 0.15 0.00 90 1007.5
20260505034031 6 20 0.0 1.6 0.00 0.15 0.00 90 1007.5
20260505033944 6 20 0.0 1.6 0.00 0.15 0.00 90 1007.5
20260505033843 6 20 0.0 1.6 0.00 0.15 0.00 90 1007.5
20260505033743 6 20 0.0 1.6 0.00 0.15 0.00 90 1007.5
20260505033642 6 20 0.0 1.6 0.00 0.15 0.00 90 1007.5
20260505033530 6 20 0.0 1.6 0.00 0.15 0.00 90 1007.5
20260505033443 6 20 0.0 1.6 0.00 0.15 0.00 89 1007.5
20260505033342 6 20 0.0 1.6 0.00 0.15 0.00 89 1007.6
20260505033242 7 20 0.0 1.6 0.00 0.15 0.00 89 1007.6
20260505033143 7 20 0.0 1.6 0.00 0.15 0.00 89 1007.6
20260505033028 7 20 0.0 1.6 0.00 0.15 0.00 89 1007.6
20260505032943 7 20 0.0 1.6 0.00 0.15 0.00 89 1007.6
20260505032843 7 20 0.0 1.6 0.00 0.15 0.00 90 1007.6
20260505032742 7 20 0.0 1.6 0.00 0.15 0.00 90 1007.6
20260505032642 7 20 0.0 1.6 0.00 0.15 0.00 90 1007.6
20260505032529 7 20 0.0 1.6 0.00 0.15 0.00 90 1007.6
20260505032439 7 20 0.0 1.6 0.00 0.15 0.00 90 1007.6
20260505032338 7 20 0.0 1.6 0.00 0.15 0.00 90 1007.6
20260505032239 7 20 0.0 1.6 0.00 0.15 0.00 90 1007.6
20260505032139 7 20 0.0 1.6 0.00 0.15 0.00 90 1007.6
20260505032029 7 20 0.0 1.6 0.00 0.15 0.00 90 1007.6
20260505031938 7 20 0.0 1.6 0.00 0.15 0.00 90 1007.6
20260505031838 7 20 0.0 1.6 0.00 0.15 0.00 90 1007.6
20260505031739 7 20 0.0 1.6 0.00 0.15 0.00 90 1007.5
20260505031638 7 20 0.0 0.0 0.00 0.15 0.00 90 1007.6
20260505031529 7 20 0.0 0.0 0.00 0.15 0.00 90 1007.6
20260505031439 7 20 0.0 0.0 0.00 0.15 0.00 90 1007.6
20260505031338 7 20 0.0 1.6 0.00 0.15 0.00 90 1007.6
20260505031238 7 20 0.0 1.6 0.00 0.15 0.00 90 1007.6
20260505031139 7 20 0.0 1.6 0.00 0.15 0.00 90 1007.6
20260505031039 7 20 0.0 1.6 0.00 0.15 0.00 90 1007.6
20260505031029 7 20 0.0 1.6 0.00 0.15 0.00 90 1007.6
20260505030939 7 20 0.0 1.6 0.00 0.15 0.00 90 1007.6
20260505030843 7 20 0.0 1.6 0.00 0.15 0.00 90 1007.6
20260505030739 7 20 0.0 1.6 0.00 0.15 0.00 90 1007.7
20260505030638 7 20 0.0 1.6 0.00 0.15 0.00 90 1007.7
20260505030528 7 20 0.0 1.6 0.00 0.15 0.00 90 1007.7
20260505030434 7 20 0.0 1.6 0.00 0.15 0.00 90 1007.7
20260505030339 7 20 0.0 1.6 0.00 0.15 0.00 90 1007.7
20260505030235 7 20 0.0 0.0 0.00 0.15 0.00 90 1007.7
20260505030135 7 20 0.0 0.0 0.00 0.15 0.00 90 1007.7
20260505030028 7 20 0.0 0.0 0.00 0.15 0.00 90 1007.7
20260505025935 7 20 0.0 0.0 0.00 0.15 0.00 90 1007.7
20260505025835 7 20 0.0 1.6 0.00 0.15 0.00 90 1007.7
20260505025735 7 20 0.0 1.6 0.00 0.15 0.00 90 1007.7
20260505025635 7 20 0.0 1.6 0.00 0.15 0.00 90 1007.7
20260505025529 7 20 0.0 1.6 0.00 0.15 0.00 90 1007.7
20260505025434 7 20 0.0 1.6 0.00 0.15 0.00 90 1007.7
20260505025334 7 20 0.0 1.6 0.00 0.15 0.00 90 1007.7
20260505025248 7 20 0.0 1.6 0.00 0.15 0.00 90 1007.7
20260505025244 7 20 0.0 1.6 0.00 0.15 0.00 90 1007.8
20260505025240 7 20 0.0 1.6 0.00 0.15 0.00 90 1007.8
20260505024935 7 20 0.0 1.6 0.00 0.15 0.00 90 1007.8
20260505024834 7 20 0.0 0.0 0.00 0.15 0.00 90 1007.8
20260505024734 7 20 0.0 0.0 0.00 0.15 0.00 90 1007.8
20260505024629 7 20 0.0 1.6 0.00 0.15 0.00 90 1007.8
20260505024529 7 20 0.0 1.6 0.00 0.15 0.00 90 1007.8
20260505024429 7 20 0.0 1.6 0.00 0.15 0.00 89 1007.9
20260505024330 7 20 0.0 1.6 0.00 0.15 0.00 89 1007.9
20260505024229 7 20 0.0 1.6 0.00 0.15 0.00 89 1007.9
20260505024129 7 20 0.0 1.6 0.00 0.15 0.00 89 1008.0
20260505024031 7 20 0.0 1.6 0.00 0.15 0.00 89 1008.0
20260505023929 7 20 0.0 1.6 0.00 0.15 0.00 89 1008.0
20260505023829 7 20 0.0 1.6 0.00 0.15 0.00 89 1008.0
20260505023728 7 20 0.0 1.6 0.00 0.15 0.00 89 1008.0
20260505023629 7 20 0.0 1.6 0.00 0.15 0.00 88 1008.1
20260505023529 7 20 0.0 0.0 0.00 0.15 0.00 88 1008.0
20260505023429 8 20 0.0 0.0 0.00 0.15 0.00 88 1008.1
20260505023329 8 20 0.0 0.0 0.00 0.15 0.00 88 1008.1
20260505023229 8 20 0.0 0.0 0.00 0.15 0.00 88 1008.1
20260505023129 8 20 0.0 0.0 0.00 0.15 0.00 88 1008.1
20260505023029 8 20 0.0 0.0 0.00 0.15 0.00 88 1008.1
20260505022929 8 20 0.0 0.0 0.00 0.15 0.00 88 1008.2
20260505022829 8 20 0.0 0.0 0.00 0.15 0.00 88 1008.2
20260505022727 8 20 0.0 1.6 0.00 0.15 0.00 88 1008.2
20260505022627 8 20 0.0 1.6 0.00 0.15 0.00 89 1008.2
20260505022527 8 20 0.0 1.6 0.00 0.15 0.00 89 1008.2
20260505022426 8 20 0.0 1.6 0.00 0.15 0.00 89 1008.2
20260505022326 8 20 0.0 1.6 0.00 0.15 0.00 90 1008.2
20260505022227 8 20 0.0 1.6 0.00 0.15 0.00 90 1008.2
20260505022126 8 20 0.0 1.6 0.00 0.15 0.00 91 1008.2
20260505022027 8 20 0.0 3.2 0.00 0.15 0.00 91 1008.2
20260505021927 8 20 0.0 3.2 0.00 0.15 0.00 91 1008.2
20260505021831 8 20 0.0 3.2 0.00 0.15 0.00 91 1008.2
20260505021726 8 20 1.6 3.2 0.00 0.15 0.00 91 1008.3
20260505021626 8 20 1.6 3.2 0.00 0.15 0.00 92 1008.3
20260505021526 8 20 1.6 3.2 0.00 0.15 0.00 92 1008.3
20260505021426 8 20 1.6 3.2 0.00 0.15 0.00 92 1008.4
20260505021327 8 20 1.6 3.2 0.00 0.15 0.00 92 1008.4
20260505021227 8 20 1.6 3.2 0.00 0.15 0.00 92 1008.4
20260505021126 8 20 1.6 3.2 0.00 0.15 0.00 92 1008.4
20260505021026 8 20 1.6 3.2 0.00 0.15 0.00 92 1008.4
20260505020926 8 20 1.6 3.2 0.00 0.15 0.00 92 1008.4
20260505020822 8 20 1.6 3.2 0.00 0.15 0.00 92 1008.6
20260505020723 8 20 1.6 3.2 0.00 0.15 0.00 92 1008.4
20260505020623 8 20 1.6 3.2 0.00 0.15 0.00 92 1008.6
20260505020522 8 20 1.6 3.2 0.00 0.15 0.00 92 1008.6
20260505020422 8 20 1.6 3.2 0.00 0.15 0.00 92 1008.6
20260505020322 8 20 1.6 3.2 0.00 0.15 0.00 92 1008.6
20260505020223 8 20 1.6 3.2 0.00 0.15 0.00 92 1008.6
20260505020122 8 20 1.6 3.2 0.00 0.15 0.00 92 1008.6
20260505020022 8 20 1.6 3.2 0.00 0.15 0.00 92 1008.6
20260505015920 8 20 1.6 3.2 0.00 0.15 0.00 92 1008.6
20260505015818 8 20 1.6 3.2 0.00 0.15 0.00 91 1008.6
20260505015718 8 20 1.6 3.2 0.00 0.15 0.00 91 1008.6
20260505015617 8 20 1.6 4.8 0.00 0.15 0.00 91 1008.4
20260505015516 8 20 1.6 4.8 0.00 0.15 0.00 91 1008.4
20260505015412 8 20 1.6 4.8 0.00 0.15 0.00 91 1008.4
20260505015311 8 20 1.6 4.8 0.00 0.15 0.00 91 1008.6
20260505015208 8 20 1.6 4.8 0.00 0.15 0.00 91 1008.6
20260505015108 8 20 1.6 4.8 0.00 0.15 0.00 91 1008.4
20260505015006 8 20 1.6 4.8 0.00 0.15 0.00 91 1008.6
20260505014906 8 20 1.6 4.8 0.00 0.15 0.00 91 1008.6
20260505014804 8 20 1.6 4.8 0.00 0.15 0.00 91 1008.6
20260505014702 8 43 1.6 4.8 0.00 0.15 0.00 91 1008.4
20260505014602 8 51 1.6 3.2 0.00 0.15 0.00 91 1008.6
20260505014531 8 107 0.0 3.2 0.00 0.15 0.00 91 1008.6
20260505014501 8 108 0.0 3.2 0.00 0.15 0.00 91 1008.6
20260505014402 8 108 0.0 3.2 0.00 0.15 0.00 91 1008.6
20260505014303 8 108 0.0 1.6 0.00 0.15 0.00 91 1008.6
20260505014258 8 108 0.0 1.6 0.00 0.15 0.00 91 1008.6
20260505014245 8 108 0.0 1.6 0.00 0.15 0.00 91 1008.6
20260505014241 8 108 0.0 1.6 0.00 0.15 0.00 91 1008.6
20260505014001 8 108 0.0 1.6 0.00 0.15 0.00 91 1008.6
20260505013901 8 108 0.0 1.6 0.00 0.15 0.00 91 1008.7
20260505013801 8 108 0.0 1.6 0.00 0.15 0.00 90 1008.6
20260505013701 8 108 0.0 1.6 0.00 0.15 0.00 90 1008.6
20260505013601 8 108 0.0 1.6 0.00 0.15 0.00 90 1008.4
20260505013501 8 108 0.0 0.0 0.00 0.15 0.00 90 1008.6
20260505013401 8 108 0.0 0.0 0.00 0.15 0.00 90 1008.4
20260505013301 8 108 0.0 0.0 0.00 0.15 0.00 90 1008.4
20260505013201 8 108 0.0 0.0 0.00 0.15 0.00 90 1008.4
20260505013101 8 108 0.0 0.0 0.00 0.15 0.00 90 1008.4
20260505013030 8 108 0.0 0.0 0.00 0.15 0.00 90 1008.4
20260505013001 9 109 0.0 0.0 0.00 0.15 0.00 90 1008.4
20260505012901 9 108 0.0 0.0 0.00 0.15 0.00 90 1008.6
20260505012801 9 108 0.0 0.0 0.00 0.15 0.00 90 1008.6
20260505012701 9 108 0.0 0.0 0.00 0.15 0.00 90 1008.4
20260505012601 9 108 0.0 0.0 0.00 0.15 0.00 90 1008.6
20260505012529 9 108 0.0 0.0 0.00 0.15 0.00 90 1008.6
20260505012500 9 108 0.0 1.6 0.00 0.15 0.00 90 1008.6
20260505012400 9 108 0.0 1.6 0.00 0.15 0.00 90 1008.6
20260505012258 9 108 0.0 1.6 0.00 0.15 0.00 90 1008.4
20260505012203 9 108 0.0 1.6 0.00 0.15 0.00 90 1008.6
20260505012029 9 108 0.0 1.6 0.00 0.15 0.00 90 1008.6
20260505011957 9 108 0.0 1.6 0.00 0.15 0.00 90 1008.7
20260505011852 9 108 0.0 1.6 0.00 0.15 0.00 90 1008.6
20260505011752 9 108 0.0 1.6 0.00 0.15 0.00 90 1008.6
20260505011652 9 108 0.0 1.6 0.00 0.15 0.00 90 1008.6
20260505011552 9 108 0.0 1.6 0.00 0.15 0.00 90 1008.7
20260505011529 9 108 0.0 1.6 0.00 0.15 0.00 91 1008.7
20260505011452 9 108 0.0 1.6 0.00 0.15 0.00 90 1008.6
20260505011352 9 108 0.0 0.0 0.00 0.15 0.00 91 1008.6
20260505011252 9 108 0.0 0.0 0.00 0.15 0.00 91 1008.7
20260505011152 9 108 0.0 0.0 0.00 0.15 0.00 91 1008.6
20260505011031 9 108 0.0 0.0 0.00 0.15 0.00 90 1008.7
20260505010953 9 108 0.0 0.0 0.00 0.15 0.00 90 1008.6
20260505010853 9 108 0.0 0.0 0.00 0.15 0.00 90 1008.6
20260505010752 9 108 0.0 0.0 0.00 0.15 0.00 90 1008.6
20260505010650 9 108 0.0 0.0 0.00 0.15 0.00 90 1008.6
20260505010529 9 108 0.0 0.0 0.00 0.15 0.00 90 1008.6
20260505010450 9 108 0.0 0.0 0.00 0.15 0.00 90 1008.6
20260505010348 9 108 0.0 0.0 0.00 0.15 0.00 90 1008.6
20260505010247 9 108 0.0 0.0 0.00 0.15 0.00 90 1008.6
20260505010144 9 108 0.0 0.0 0.00 0.15 0.00 90 1008.6
20260505010029 9 108 0.0 0.0 0.00 0.15 0.00 90 1008.6
20260505005944 9 108 0.0 0.0 0.00 0.15 0.00 90 1008.6
20260505005843 9 108 0.0 0.0 0.00 0.15 0.00 90 1008.7
20260505005740 9 108 0.0 0.0 0.00 0.15 0.00 90 1008.6
20260505005640 9 108 0.0 0.0 0.00 0.15 0.00 90 1008.6
20260505005529 9 108 0.0 0.0 0.00 0.15 0.00 90 1008.7
20260505005441 9 108 0.0 0.0 0.00 0.15 0.00 90 1008.7
20260505005336 9 108 0.0 0.0 0.00 0.15 0.00 90 1008.6
20260505005240 9 108 0.0 0.0 0.00 0.15 0.00 90 1008.7
20260505005134 10 108 0.0 0.0 0.00 0.15 0.00 90 1008.7
20260505005028 10 108 0.0 0.0 0.00 0.15 0.00 90 1008.6
20260505004936 10 108 0.0 0.0 0.00 0.15 0.00 90 1008.7
20260505004829 10 108 0.0 0.0 0.00 0.15 0.00 90 1008.7
20260505004734 10 108 0.0 0.0 0.00 0.15 0.00 90 1008.7
20260505004629 10 108 0.0 1.6 0.00 0.15 0.00 90 1008.7
20260505004531 10 108 0.0 1.6 0.00 0.15 0.00 89 1008.7
20260505004429 10 108 0.0 1.6 0.00 0.15 0.00 89 1008.7
20260505004329 10 108 0.0 1.6 0.00 0.15 0.00 89 1008.7
20260505004234 10 108 0.0 1.6 0.00 0.15 0.00 89 1008.7
20260505004129 10 108 0.0 1.6 0.00 0.15 0.00 89 1008.7
20260505004031 10 108 0.0 1.6 0.00 0.15 0.00 89 1008.7
20260505003929 10 108 0.0 1.6 0.00 0.15 0.00 89 1008.7
20260505003826 10 108 0.0 1.6 0.00 0.15 0.00 89 1008.8
20260505003729 10 108 0.0 3.2 0.00 0.15 0.00 89 1008.8
20260505003626 10 108 0.0 3.2 0.00 0.15 0.00 89 1008.8
20260505003524 10 108 1.6 3.2 0.00 0.15 0.00 89 1008.8
20260505003424 10 108 1.6 3.2 0.00 0.15 0.00 90 1008.8
20260505003322 10 108 1.6 3.2 0.00 0.15 0.00 90 1008.9
20260505003224 10 108 1.6 3.2 0.00 0.15 0.00 90 1008.8
20260505003117 10 108 1.6 3.2 0.00 0.15 0.00 90 1008.8
20260505003016 10 108 1.6 3.2 0.00 0.15 0.00 90 1008.8
20260505002916 10 108 1.6 3.2 0.00 0.15 0.00 90 1008.8
20260505002816 10 108 0.0 3.2 0.00 0.15 0.00 90 1008.8
20260505002718 10 108 0.0 3.2 0.00 0.15 0.00 90 1008.8
20260505002610 10 108 0.0 3.2 0.00 0.15 0.00 90 1008.8
20260505002529 10 108 0.0 3.2 0.00 0.15 0.00 90 1008.8
20260505002508 10 109 0.0 3.2 0.00 0.15 0.00 89 1008.8
20260505002409 10 109 0.0 3.2 0.00 0.15 0.00 89 1008.8
20260505002211 10 109 0.0 0.0 0.00 0.15 0.00 89 1008.8
20260505002104 10 109 0.0 0.0 0.00 0.15 0.00 90 1008.9
20260505002025 10 109 0.0 0.0 0.00 0.15 0.00 90 1008.9
20260505002002 10 109 0.0 0.0 0.00 0.15 0.00 89 1008.9
20260505001902 10 109 0.0 0.0 0.00 0.15 0.00 90 1008.9
20260505001802 10 109 0.0 0.0 0.00 0.15 0.00 90 1008.9
20260505001706 10 109 0.0 0.0 0.00 0.15 0.00 90 1008.9
20260505001602 10 109 0.0 0.0 0.00 0.15 0.00 90 1008.9
20260505001501 10 109 0.0 0.0 0.00 0.15 0.00 90 1008.9
20260505001401 10 109 0.0 0.0 0.00 0.15 0.00 90 1008.9
20260505001301 10 109 0.0 0.0 0.00 0.15 0.00 90 1008.9
20260505001201 10 109 0.0 0.0 0.00 0.15 0.00 90 1008.9
20260505001102 10 109 0.0 0.0 0.00 0.15 0.00 90 1008.9
20260505001014 10 109 0.0 0.0 0.00 0.15 0.00 90 1008.9
20260505001001 10 109 0.0 1.6 0.00 0.15 0.00 90 1008.9
20260505000901 10 109 0.0 1.6 0.00 0.15 0.00 90 1008.9
20260505000801 10 109 0.0 3.2 0.00 0.15 0.00 90 1008.9
20260505000701 10 109 0.0 3.2 0.00 0.15 0.00 90 1008.9
20260505000600 10 109 0.0 3.2 0.00 0.15 0.00 90 1008.9
20260505000501 10 109 0.0 3.2 0.00 0.15 0.00 90 1008.9
20260505000401 10 109 0.0 3.2 0.00 0.15 0.00 90 1008.9
20260505000301 10 109 0.0 3.2 0.00 0.15 0.00 90 1009.0
20260505000235 10 109 0.0 3.2 0.00 0.15 0.00 90 1009.0
20260505000228 10 109 0.0 3.2 0.00 0.15 0.00 90 1009.0
20260505000220 10 109 0.0 3.2 0.00 0.15 0.00 90 1009.0
20260505000001 10 109 0.0 3.2 0.00 0.15 0.00 90 1009.0
20260504235900 10 109 0.0 3.2 0.00 0.15 0.00 90 1009.0
20260504235800 10 109 0.0 1.6 0.00 0.15 0.00 90 1009.0
20260504235741 10 109 0.0 1.6 0.00 0.15 0.00 90 1009.0
20260504235729 10 109 0.0 1.6 0.00 0.15 0.00 90 1009.0
20260504235721 10 109 0.0 1.6 0.00 0.15 0.00 90 1009.0
20260504235500 10 109 0.0 1.6 0.00 0.15 0.00 90 1009.0
20260504235401 10 109 0.0 1.6 0.00 0.15 0.00 90 1009.0
20260504235301 10 109 0.0 0.0 0.00 0.15 0.00 90 1009.0
20260504235201 10 109 0.0 0.0 0.00 0.15 0.00 90 1009.0
20260504235101 10 109 0.0 0.0 0.00 0.15 0.00 90 1009.0
20260504235000 10 109 0.0 1.6 0.00 0.15 0.00 90 1009.1
20260504234900 10 109 0.0 1.6 0.00 0.15 0.00 90 1009.1
20260504234806 10 109 0.0 3.2 0.00 0.15 0.00 90 1009.1
20260504234702 10 109 0.0 3.2 0.00 0.15 0.00 90 1009.1
20260504234601 10 109 0.0 3.2 0.00 0.15 0.00 90 1009.1
20260504234502 10 109 0.0 3.2 0.00 0.15 0.00 90 1009.1
20260504234302 10 109 0.0 3.2 0.00 0.15 0.00 90 1009.1
20260504234201 10 109 0.0 3.2 0.00 0.15 0.00 90 1009.1
20260504234102 10 109 0.0 3.2 0.00 0.15 0.00 90 1009.1
20260504234001 10 109 0.0 3.2 0.00 0.15 0.00 90 1009.2
20260504233901 10 109 0.0 3.2 0.00 0.15 0.00 90 1009.2
20260504233801 10 109 0.0 3.2 0.00 0.15 0.00 90 1009.2
20260504233731 10 109 0.0 3.2 0.00 0.15 0.00 90 1009.2
20260504233725 10 109 0.0 3.2 0.00 0.15 0.00 90 1009.2
20260504233717 10 109 0.0 3.2 0.00 0.15 0.00 90 1009.2
20260504233501 10 109 0.0 3.2 0.00 0.15 0.00 90 1009.2
20260504233401 10 109 0.0 3.2 0.00 0.15 0.00 90 1009.3
20260504233301 10 109 0.0 3.2 0.00 0.15 0.00 90 1009.3
20260504233232 10 110 0.0 3.2 0.00 0.15 0.00 90 1009.2
20260504233224 10 109 0.0 3.2 0.00 0.15 0.00 90 1009.2
20260504233216 10 110 0.0 3.2 0.00 0.15 0.00 90 1009.3
20260504233001 10 110 0.0 3.2 0.00 0.15 0.00 90 1009.2
20260504232900 10 110 0.0 3.2 0.00 0.15 0.00 90 1009.3
20260504232800 10 110 0.0 3.2 0.00 0.15 0.00 90 1009.3
20260504232730 10 110 0.0 1.6 0.00 0.15 0.00 90 1009.3
20260504232721 10 110 0.0 1.6 0.00 0.15 0.00 90 1009.3
20260504232713 10 110 0.0 1.6 0.00 0.15 0.00 90 1009.3
20260504232456 10 111 0.0 1.6 0.00 0.15 0.00 90 1009.3
20260504232356 10 111 0.0 1.6 0.00 0.15 0.00 90 1009.3
20260504232256 10 111 0.0 1.6 0.00 0.15 0.00 90 1009.3
20260504232156 10 110 0.0 1.6 0.00 0.15 0.00 90 1009.3
20260504232056 10 110 0.0 3.2 0.00 0.15 0.00 90 1009.3
20260504232002 10 110 0.0 3.2 0.00 0.15 0.00 90 1009.3
20260504231953 10 111 0.0 3.2 0.00 0.15 0.00 90 1009.3
20260504231854 10 111 0.0 3.2 0.00 0.15 0.00 90 1009.4
20260504231754 10 111 0.0 3.2 0.00 0.15 0.00 90 1009.4
20260504231725 10 108 0.0 3.2 0.00 0.15 0.00 89 1009.4
20260504231721 10 108 0.0 3.2 0.00 0.15 0.00 90 1009.4
20260504231713 10 108 0.0 3.2 0.00 0.15 0.00 90 1009.4
20260504231450 10 108 0.0 3.2 0.00 0.15 0.00 89 1009.4
20260504231349 10 109 0.0 3.2 0.00 0.15 0.00 89 1009.4
20260504231250 10 108 0.0 3.2 0.00 0.15 0.00 89 1009.5
20260504231150 10 109 0.0 3.2 0.00 0.15 0.00 89 1009.4
20260504231049 10 109 0.0 3.2 0.00 0.15 0.00 89 1009.5
20260504231001 10 109 0.0 3.2 0.00 0.15 0.00 89 1009.5
20260504230948 10 109 0.0 3.2 0.00 0.15 0.00 89 1009.5
20260504230846 10 109 0.0 3.2 0.00 0.15 0.00 89 1009.5
20260504230746 10 107 0.0 3.2 0.00 0.15 0.00 89 1009.5
20260504230644 10 107 0.0 3.2 0.00 0.15 0.00 89 1009.5
20260504230542 10 101 0.0 3.2 0.00 0.15 0.00 89 1009.4
20260504230502 10 101 0.0 3.2 0.00 0.15 0.00 89 1009.4
20260504230440 10 103 0.0 3.2 0.00 0.15 0.00 89 1009.5
20260504230340 10 105 0.0 3.2 0.00 0.15 0.00 89 1009.5
20260504230240 10 105 0.0 3.2 0.00 0.15 0.00 89 1009.5
20260504230222 10 105 0.0 3.2 0.00 0.15 0.00 89 1009.5
20260504230214 10 105 1.6 3.2 0.00 0.15 0.00 89 1009.5
20260504225936 10 105 1.6 3.2 0.00 0.15 0.00 89 1009.4
20260504225834 10 105 1.6 4.8 0.00 0.15 0.00 89 1009.5
20260504225732 10 105 1.6 4.8 0.00 0.15 0.00 88 1009.4
20260504225632 10 96 1.6 4.8 0.00 0.15 0.00 88 1009.5
20260504225502 10 97 1.6 4.8 0.00 0.15 0.00 88 1009.5
20260504225430 10 97 1.6 4.8 0.00 0.15 0.00 88 1009.5
20260504225330 11 97 1.6 4.8 0.00 0.15 0.00 88 1009.5
20260504225230 11 97 1.6 4.8 0.00 0.15 0.00 88 1009.5
20260504225130 11 97 1.6 4.8 0.00 0.15 0.00 88 1009.5
20260504225001 11 97 1.6 4.8 0.00 0.15 0.00 87 1009.5
20260504224930 11 97 1.6 4.8 0.00 0.15 0.00 87 1009.5
20260504224830 11 104 1.6 3.2 0.00 0.15 0.00 87 1009.5
20260504224727 11 100 1.6 4.8 0.00 0.15 0.00 88 1009.5
20260504224628 11 94 1.6 6.4 0.00 0.15 0.00 88 1009.5
20260504224502 11 103 1.6 11.3 0.00 0.15 0.00 88 1009.5
20260504224428 11 103 1.6 11.3 0.00 0.15 0.00 88 1009.5
20260504224328 11 103 3.2 11.3 0.00 0.15 0.00 88 1009.5
20260504224224 11 103 3.2 11.3 0.00 0.15 0.00 88 1009.5
20260504224124 11 103 3.2 11.3 0.00 0.15 0.00 88 1009.5
20260504224001 11 103 1.6 11.3 0.00 0.15 0.00 87 1009.5
20260504223924 11 103 1.6 11.3 0.00 0.15 0.00 87 1009.5
20260504223822 11 103 1.6 11.3 0.00 0.15 0.00 87 1009.5
20260504223718 11 125 1.6 11.3 0.00 0.15 0.00 88 1009.5
20260504223618 11 126 1.6 11.3 0.00 0.15 0.00 88 1009.5
20260504223518 11 96 0.0 4.8 0.00 0.15 0.00 88 1009.5
20260504223458 11 72 0.0 4.8 0.00 0.15 0.00 88 1009.5
20260504223418 11 71 0.0 4.8 0.00 0.15 0.00 88 1009.5
20260504223316 11 318 0.0 0.0 0.00 0.15 0.00 88 1009.5
20260504223222 11 317 0.0 3.2 0.00 0.15 0.00 88 1009.4
20260504223216 11 317 0.0 3.2 0.00 0.15 0.00 88 1009.5
20260504223212 11 317 0.0 3.2 0.00 0.15 0.00 88 1009.5
20260504223203 11 317 0.0 3.2 0.00 0.15 0.00 88 1009.4
20260504222911 11 317 0.0 3.2 0.00 0.15 0.00 88 1009.4
20260504222809 11 317 1.6 3.2 0.00 0.15 0.00 88 1009.5
20260504222710 11 317 1.6 3.2 0.00 0.15 0.00 88 1009.4
20260504222612 11 317 1.6 3.2 0.00 0.15 0.00 88 1009.4
20260504222508 11 317 1.6 3.2 0.00 0.15 0.00 88 1009.4
20260504222452 11 317 1.6 3.2 0.00 0.15 0.00 88 1009.5
20260504222406 11 317 1.6 3.2 0.00 0.15 0.00 88 1009.5
20260504222305 11 317 1.6 3.2 0.00 0.15 0.00 88 1009.5
20260504222204 11 317 1.6 3.2 0.00 0.15 0.00 88 1009.5
20260504222101 11 317 1.6 3.2 0.00 0.15 0.00 88 1009.4
20260504222001 11 317 1.6 3.2 0.00 0.15 0.00 88 1009.5
20260504221952 11 317 1.6 3.2 0.00 0.15 0.00 88 1009.5
20260504221901 11 317 1.6 3.2 0.00 0.15 0.00 88 1009.5
20260504221801 11 317 1.6 3.2 0.00 0.15 0.00 88 1009.5
20260504221701 11 317 1.6 3.2 0.00 0.15 0.00 88 1009.5
20260504221601 11 317 1.6 3.2 0.00 0.15 0.00 88 1009.5
20260504221501 11 317 1.6 3.2 0.00 0.15 0.00 88 1009.5
20260504221451 11 317 1.6 3.2 0.00 0.15 0.00 88 1009.5
20260504221405 12 317 1.6 3.2 0.00 0.15 0.00 88 1009.5
20260504221301 12 317 0.0 3.2 0.00 0.15 0.00 88 1009.5
20260504221201 12 317 0.0 3.2 0.00 0.15 0.00 88 1009.5
20260504221101 12 317 0.0 3.2 0.00 0.15 0.00 88 1009.5
20260504221001 12 317 0.0 3.2 0.00 0.15 0.00 88 1009.5
20260504220952 12 317 1.6 3.2 0.00 0.15 0.00 88 1009.5
20260504220901 12 317 1.6 3.2 0.00 0.15 0.00 88 1009.5
20260504220801 12 317 1.6 3.2 0.00 0.15 0.00 87 1009.6
20260504220701 12 317 1.6 3.2 0.00 0.15 0.00 87 1009.6
20260504220606 12 317 1.6 3.2 0.00 0.15 0.00 87 1009.6
20260504220501 12 317 1.6 3.2 0.00 0.15 0.00 87 1009.6
20260504220452 12 317 1.6 3.2 0.00 0.15 0.00 87 1009.5
20260504220401 12 317 1.6 3.2 0.00 0.15 0.00 87 1009.5
20260504220300 12 317 1.6 3.2 0.00 0.15 0.00 87 1009.6
20260504220200 12 317 1.6 3.2 0.00 0.15 0.00 87 1009.6
20260504220103 12 317 1.6 3.2 0.00 0.15 0.00 87 1009.6
20260504220001 12 317 0.0 3.2 0.00 0.15 0.00 88 1009.7
20260504215951 12 317 0.0 3.2 0.00 0.15 0.15 88 1009.6
20260504215901 12 317 0.0 3.2 0.00 0.15 0.15 88 1009.6
20260504215801 12 317 0.0 3.2 0.00 0.15 0.15 88 1009.7
20260504215701 12 317 0.0 3.2 0.00 0.15 0.15 88 1009.7
20260504215600 12 317 0.0 0.0 0.00 0.15 0.15 87 1009.7
20260504215500 12 317 0.0 1.6 0.00 0.15 0.15 87 1009.7
20260504215449 12 317 0.0 1.6 0.00 0.15 0.15 87 1009.7
20260504215400 12 317 0.0 1.6 0.00 0.15 0.15 87 1009.7
20260504215300 12 317 0.0 1.6 0.00 0.15 0.15 87 1009.7
20260504215201 12 317 0.0 3.2 0.00 0.15 0.15 87 1009.7
20260504215101 12 317 0.0 3.2 0.00 0.15 0.15 87 1009.7
20260504215002 12 317 0.0 3.2 0.00 0.15 0.15 87 1009.7
20260504214948 12 317 0.0 3.2 0.00 0.15 0.15 87 1009.8
20260504214901 12 317 0.0 3.2 0.00 0.15 0.15 87 1009.8
20260504214759 12 317 0.0 3.2 0.00 0.15 0.15 87 1009.8
20260504214717 12 317 0.0 3.2 0.00 0.15 0.15 87 1009.8
20260504214712 12 317 0.0 3.2 0.00 0.15 0.15 87 1009.8
20260504214708 12 317 0.0 3.2 0.00 0.15 0.15 87 1009.8
20260504214700 12 317 0.0 3.2 0.00 0.15 0.15 87 1009.9
20260504214358 12 317 0.0 3.2 0.00 0.15 0.15 87 1009.9
20260504214253 12 317 0.0 3.2 0.00 0.15 0.15 87 1009.9
20260504214153 12 317 0.0 1.6 0.00 0.15 0.15 87 1009.9
20260504214053 12 317 0.0 0.0 0.00 0.15 0.15 87 1009.9
20260504213946 12 317 0.0 0.0 0.00 0.15 0.15 87 1009.8
20260504213852 12 317 0.0 0.0 0.00 0.15 0.15 86 1009.9
20260504213747 12 317 0.0 0.0 0.00 0.15 0.15 87 1009.9
20260504213647 12 317 0.0 1.6 0.00 0.15 0.15 86 1009.9
20260504213547 12 317 0.0 3.2 0.00 0.15 0.15 86 1009.9
20260504213445 12 317 1.6 4.8 0.00 0.15 0.15 86 1009.9
20260504213347 12 317 1.6 4.8 0.00 0.15 0.15 86 1009.9
20260504213247 12 317 1.6 4.8 0.00 0.15 0.15 86 1009.9
20260504213145 12 317 1.6 4.8 0.00 0.15 0.15 86 1010.0
20260504213046 12 317 1.6 4.8 0.00 0.15 0.15 86 1010.0
20260504212942 12 317 1.6 4.8 0.00 0.15 0.15 86 1010.0
20260504212904 12 317 1.6 4.8 0.00 0.15 0.15 86 1010.0
20260504212741 12 317 1.6 4.8 0.00 0.15 0.15 86 1010.0
20260504212639 12 317 1.6 4.8 0.00 0.15 0.15 86 1010.0
20260504212539 12 317 1.6 4.8 0.00 0.15 0.15 86 1010.0
20260504212443 12 317 1.6 4.8 0.00 0.15 0.15 86 1010.0
20260504212437 12 318 1.6 4.8 0.00 0.15 0.15 86 1010.0
20260504212335 12 319 1.6 4.8 0.00 0.15 0.15 86 1010.0
20260504212229 12 319 1.6 4.8 0.00 0.15 0.15 86 1010.0
20260504212129 12 319 3.2 4.8 0.00 0.15 0.15 86 1010.0
20260504212029 12 319 3.2 4.8 0.00 0.15 0.15 86 1010.0
20260504211929 12 319 3.2 4.8 0.00 0.15 0.15 86 1010.0
20260504211829 12 319 1.6 4.8 0.00 0.15 0.15 85 1010.0
20260504211729 12 319 3.2 4.8 0.00 0.15 0.15 85 1010.0
20260504211629 12 319 3.2 4.8 0.00 0.15 0.15 85 1010.0
20260504211529 12 319 3.2 4.8 0.00 0.15 0.15 85 1009.9
20260504211429 12 319 3.2 4.8 0.00 0.15 0.15 85 1010.0
20260504211330 12 319 3.2 4.8 0.00 0.15 0.15 85 1010.0
20260504211229 12 319 1.6 4.8 0.00 0.15 0.15 85 1010.0
20260504211129 12 296 1.6 4.8 0.00 0.15 0.15 85 1010.0
20260504211029 12 294 1.6 4.8 0.00 0.15 0.15 85 1010.0
20260504210942 12 295 1.6 4.8 0.00 0.15 0.15 85 1010.0
20260504210929 12 290 1.6 4.8 0.00 0.15 0.15 85 1010.0
20260504210829 12 290 1.6 4.8 0.00 0.15 0.15 85 1010.0
20260504210729 12 290 1.6 4.8 0.00 0.15 0.15 85 1010.0
20260504210629 13 276 1.6 4.8 0.00 0.15 0.15 86 1010.0
20260504210529 13 267 0.0 4.8 0.00 0.15 0.15 86 1010.0
20260504210440 13 260 0.0 4.8 0.00 0.15 0.15 86 1010.0
20260504210429 13 223 0.0 3.2 0.00 0.15 0.15 86 1010.0
20260504210329 13 150 0.0 3.2 0.00 0.15 0.15 86 1009.9
20260504210229 13 150 0.0 3.2 0.00 0.15 0.15 86 1009.9
20260504210207 13 150 0.0 3.2 0.00 0.15 0.15 85 1010.0
20260504210202 13 150 0.0 3.2 0.00 0.15 0.15 86 1009.9
20260504210158 13 150 0.0 3.2 0.00 0.15 0.15 86 1009.9
20260504205929 13 150 0.0 3.2 0.00 0.15 0.15 85 1010.0
20260504205829 13 150 0.0 3.2 0.00 0.15 0.15 85 1009.9
20260504205729 13 150 0.0 1.6 0.00 0.15 0.15 84 1009.9
20260504205629 13 150 0.0 1.6 0.00 0.15 0.15 84 1010.0
20260504205529 13 150 0.0 1.6 0.00 0.15 0.15 84 1009.9
20260504205429 13 150 0.0 1.6 0.00 0.15 0.15 84 1009.9
20260504205328 13 150 0.0 3.2 0.00 0.15 0.15 84 1009.9
20260504205228 13 150 0.0 3.2 0.00 0.15 0.15 84 1009.9
20260504205203 13 150 1.6 3.2 0.00 0.15 0.15 84 1009.9
20260504205158 13 150 0.0 3.2 0.00 0.15 0.15 84 1009.9
20260504205154 13 150 0.0 3.2 0.00 0.15 0.15 84 1009.9
20260504204928 13 150 1.6 3.2 0.00 0.15 0.15 84 1009.9
20260504204829 13 150 1.6 4.8 0.00 0.15 0.15 85 1009.9
20260504204729 13 150 1.6 4.8 0.00 0.15 0.15 83 1009.9
20260504204629 13 150 1.6 4.8 0.00 0.15 0.15 83 1009.9
20260504204529 13 150 1.6 4.8 0.00 0.15 0.15 83 1010.0
20260504204429 13 150 1.6 4.8 0.00 0.15 0.15 83 1010.0
20260504204329 13 150 1.6 4.8 0.00 0.15 0.15 83 1010.0
20260504204229 13 150 1.6 4.8 0.00 0.15 0.15 83 1010.0
20260504204129 13 150 1.6 4.8 0.00 0.15 0.15 83 1010.0
20260504204029 13 150 1.6 4.8 0.00 0.15 0.15 83 1010.1
20260504203928 13 150 1.6 4.8 0.00 0.15 0.15 83 1010.1
20260504203828 13 150 1.6 4.8 0.00 0.15 0.15 83 1010.1
20260504203729 13 149 1.6 4.8 0.00 0.15 0.15 83 1010.0
20260504203629 13 115 1.6 4.8 0.00 0.15 0.15 83 1010.1
20260504203529 13 115 1.6 4.8 0.00 0.15 0.15 83 1010.1
20260504203429 13 115 1.6 4.8 0.00 0.15 0.15 81 1010.1
20260504203329 13 115 1.6 4.8 0.00 0.15 0.15 80 1010.1
20260504203230 13 115 1.6 4.8 0.00 0.15 0.15 81 1010.0
20260504203129 13 116 1.6 4.8 0.00 0.15 0.15 82 1010.0
20260504203029 13 115 1.6 4.8 0.00 0.15 0.15 82 1010.1
20260504202928 13 106 1.6 4.8 0.00 0.15 0.15 82 1010.0
20260504202829 13 105 1.6 4.8 0.00 0.15 0.15 83 1010.0
20260504202729 13 96 1.6 4.8 0.00 0.15 0.15 82 1010.0
20260504202629 13 95 1.6 4.8 0.00 0.15 0.15 82 1010.0
20260504202529 13 95 1.6 6.4 0.00 0.15 0.15 82 1010.0
20260504202437 13 94 1.6 6.4 0.00 0.15 0.15 83 1010.0
20260504202429 13 93 1.6 6.4 0.00 0.15 0.15 83 1010.0
20260504202328 13 92 1.6 6.4 0.00 0.15 0.15 82 1010.0
20260504202230 13 92 1.6 6.4 0.00 0.15 0.15 82 1010.0
20260504202128 13 94 1.6 6.4 0.00 0.15 0.15 82 1009.9
20260504202029 13 61 1.6 6.4 0.00 0.15 0.15 82 1010.0
20260504201936 13 109 1.6 6.4 0.00 0.15 0.15 82 1009.9
20260504201929 13 110 1.6 6.4 0.00 0.15 0.15 82 1009.9
20260504201828 13 100 1.6 6.4 0.00 0.15 0.15 82 1010.0
20260504201729 13 101 1.6 6.4 0.00 0.15 0.15 83 1010.0
20260504201628 13 101 1.6 6.4 0.00 0.15 0.15 84 1010.0
20260504201529 13 97 1.6 4.8 0.00 0.15 0.15 84 1010.0
20260504201434 13 98 1.6 4.8 0.00 0.15 0.15 84 1010.0
20260504201427 13 99 1.6 4.8 0.00 0.15 0.15 84 1010.0
20260504201327 13 95 0.0 4.8 0.00 0.15 0.15 84 1010.1
20260504201227 13 105 0.0 4.8 0.00 0.15 0.15 85 1010.1
20260504201127 13 102 0.0 3.2 0.00 0.15 0.15 85 1010.1
20260504201027 13 105 0.0 3.2 0.00 0.15 0.15 85 1010.1
20260504200927 13 104 0.0 3.2 0.00 0.15 0.15 84 1010.1
20260504200824 13 104 0.0 3.2 0.00 0.15 0.15 84 1010.2
20260504200720 13 104 0.0 3.2 0.00 0.15 0.15 85 1010.2
20260504200620 13 104 0.0 3.2 0.00 0.15 0.15 85 1010.2
20260504200521 13 104 0.0 3.2 0.00 0.15 0.15 85 1010.2
20260504200420 13 104 1.6 3.2 0.00 0.15 0.15 85 1010.4
20260504200320 13 104 1.6 3.2 0.00 0.15 0.15 85 1010.4
20260504200220 13 104 1.6 3.2 0.00 0.15 0.15 85 1010.4
20260504200121 13 104 1.6 4.8 0.00 0.15 0.15 85 1010.4
20260504200021 13 104 1.6 4.8 0.00 0.15 0.15 84 1010.4
20260504195935 13 104 1.6 4.8 0.00 0.15 0.15 85 1010.4
20260504195921 13 103 1.6 4.8 0.00 0.15 0.15 85 1010.4
20260504195821 13 104 1.6 4.8 0.03 0.15 0.15 84 1010.4
20260504195718 13 104 1.6 4.8 0.03 0.15 0.15 85 1010.5
20260504195618 13 104 1.6 4.8 0.03 0.15 0.15 84 1010.5
20260504195514 13 103 1.6 6.4 0.03 0.15 0.15 83 1010.5
20260504195415 13 103 1.6 6.4 0.05 0.15 0.15 83 1010.4
20260504195315 13 103 1.6 6.4 0.05 0.15 0.15 83 1010.4
20260504195214 13 103 3.2 11.3 0.05 0.15 0.15 83 1010.4
20260504195157 13 107 3.2 12.9 0.05 0.15 0.15 83 1010.4
20260504195151 13 104 3.2 12.9 0.05 0.15 0.15 83 1010.2
20260504195147 13 107 3.2 12.9 0.05 0.15 0.15 83 1010.2
20260504194915 13 107 3.2 12.9 0.05 0.15 0.15 82 1010.4
20260504194815 13 108 3.2 12.9 0.08 0.15 0.15 82 1010.4
20260504194715 13 110 4.8 12.9 0.08 0.15 0.15 82 1010.2
20260504194615 13 111 4.8 12.9 0.10 0.15 0.15 82 1010.2
20260504194514 13 127 4.8 12.9 0.13 0.15 0.15 82 1010.1
20260504194414 13 128 4.8 12.9 0.13 0.15 0.15 82 1010.2
20260504194314 13 129 4.8 12.9 0.15 0.15 0.15 83 1010.2
20260504194214 13 140 4.8 12.9 0.15 0.15 0.15 82 1010.2
20260504194115 13 155 3.2 11.3 0.15 0.15 0.15 82 1010.2
20260504194015 13 123 3.2 11.3 0.15 0.15 0.15 83 1010.2
20260504193914 13 153 3.2 11.3 0.15 0.15 0.15 82 1010.2
20260504193815 13 150 3.2 11.3 0.15 0.15 0.15 83 1010.1
20260504193715 13 163 3.2 11.3 0.15 0.15 0.15 83 1010.1
20260504193611 13 173 3.2 11.3 0.15 0.15 0.15 83 1010.2
20260504193512 13 161 3.2 11.3 0.15 0.15 0.15 83 1010.1
20260504193434 13 163 1.6 11.3 0.15 0.15 0.15 83 1010.1
20260504193411 13 175 1.6 11.3 0.15 0.15 0.15 83 1010.1
20260504193311 13 148 1.6 6.4 0.15 0.15 0.15 83 1010.1
20260504193211 13 114 1.6 4.8 0.15 0.15 0.15 82 1010.1
20260504193111 13 96 1.6 4.8 0.15 0.15 0.15 82 1010.0
20260504193010 13 96 1.6 6.4 0.15 0.15 0.15 82 1010.0
20260504192910 13 95 1.6 6.4 0.15 0.15 0.15 82 1010.0
20260504192811 13 96 1.6 6.4 0.15 0.15 0.15 81 1010.0
20260504192711 13 101 1.6 6.4 0.15 0.15 0.15 81 1010.0
20260504192611 14 101 1.6 6.4 0.15 0.15 0.15 81 1010.0
20260504192511 14 98 1.6 6.4 0.15 0.15 0.15 81 1010.0
20260504192410 14 101 1.6 6.4 0.15 0.15 0.15 81 1010.0
20260504192310 14 101 1.6 6.4 0.15 0.15 0.15 81 1010.0
20260504192210 14 111 1.6 6.4 0.15 0.15 0.15 81 1010.0
20260504192110 14 111 1.6 6.4 0.15 0.15 0.15 82 1010.0
20260504192010 14 105 1.6 6.4 0.15 0.15 0.15 81 1010.0
20260504191932 14 94 1.6 6.4 0.15 0.15 0.15 81 1010.0
20260504191911 14 91 1.6 6.4 0.15 0.15 0.15 81 1010.0
20260504191811 14 91 3.2 9.7 0.15 0.15 0.15 81 1010.0
20260504191707 14 90 3.2 9.7 0.15 0.15 0.15 81 1010.0
20260504191606 14 90 3.2 11.3 0.15 0.15 0.15 81 1010.0
20260504191506 14 90 3.2 11.3 0.15 0.15 0.15 81 1010.1
20260504191431 14 84 3.2 11.3 0.15 0.15 0.15 81 1010.1
20260504191407 14 90 3.2 11.3 0.15 0.15 0.15 81 1010.1
20260504191306 14 85 3.2 11.3 0.15 0.15 0.15 80 1010.1
20260504191206 14 96 3.2 11.3 0.15 0.15 0.15 80 1010.1
20260504191106 14 92 4.8 11.3 0.15 0.15 0.15 80 1010.1
20260504191007 15 103 4.8 11.3 0.15 0.15 0.15 80 1010.2
20260504190930 15 61 3.2 11.3 0.15 0.15 0.15 80 1010.2
20260504190906 15 106 3.2 11.3 0.15 0.15 0.15 80 1010.2
20260504190806 15 88 3.2 11.3 0.15 0.15 0.15 80 1010.4
20260504190706 15 115 3.2 11.3 0.15 0.15 0.15 80 1010.4
20260504190652 15 82 3.2 6.4 0.15 0.15 0.15 78 1010.5
20260504190646 15 88 3.2 8.0 0.15 0.15 0.15 79 1010.5
20260504190640 15 79 3.2 8.0 0.15 0.15 0.15 79 1010.4
20260504190407 15 82 3.2 6.4 0.15 0.15 0.15 77 1010.5
20260504190307 15 81 3.2 6.4 0.15 0.15 0.15 77 1010.5
20260504190207 15 101 3.2 6.4 0.15 0.15 0.15 76 1010.4
20260504190107 15 91 3.2 6.4 0.15 0.15 0.15 76 1010.5
20260504190007 15 116 3.2 8.0 0.15 0.15 0.15 76 1010.5
20260504185931 15 96 3.2 8.0 0.15 0.15 0.13 76 1010.5
20260504185911 15 114 3.2 8.0 0.13 0.13 0.13 76 1010.5
20260504185802 16 103 3.2 8.0 0.13 0.13 0.13 76 1010.6
20260504185702 16 111 4.8 9.7 0.13 0.13 0.13 75 1010.7
20260504185602 16 127 4.8 14.5 0.13 0.13 0.13 75 1010.7
20260504185503 16 115 6.4 17.7 0.13 0.13 0.10 76 1010.7
20260504185430 16 105 6.4 17.7 0.10 0.10 0.10 76 1010.8
20260504185421 17 230 11.3 29.0 0.08 0.08 0.05 72 1010.7
20260504185416 16 115 6.4 17.7 0.10 0.10 0.10 76 1010.8
20260504185407 16 134 8.0 17.7 0.10 0.10 0.10 74 1010.8
20260504185403 16 183 9.7 20.9 0.10 0.10 0.10 72 1010.8
20260504185145 16 183 9.7 29.0 0.10 0.10 0.08 73 1010.8
20260504185141 17 202 9.7 29.0 0.08 0.08 0.08 72 1010.8
20260504184903 17 231 11.3 29.0 0.08 0.08 0.05 72 1010.7
20260504184800 17 228 11.3 29.0 0.05 0.05 0.05 70 1010.7
20260504184700 17 279 12.9 29.0 0.05 0.05 0.05 68 1010.7
20260504184600 17 232 12.9 29.0 0.05 0.05 0.03 68 1010.7
20260504184501 17 245 12.9 29.0 0.03 0.03 0.03 67 1010.6
20260504184430 17 259 12.9 29.0 0.03 0.03 0.00 67 1010.6
20260504184407 17 277 12.9 29.0 0.03 0.03 0.00 67 1010.6
20260504184301 17 232 12.9 29.0 0.00 0.00 0.00 65 1010.6
20260504184200 18 257 14.5 29.0 0.00 0.00 0.00 64 1010.6
20260504184100 18 273 14.5 27.4 0.00 0.00 0.00 62 1010.6
20260504184001 18 238 14.5 27.4 0.00 0.00 0.00 61 1010.5
20260504183930 18 240 14.5 27.4 0.00 0.00 0.00 61 1010.5
20260504183901 18 273 14.5 27.4 0.00 0.00 0.00 60 1010.5
20260504183801 18 225 14.5 27.4 0.00 0.00 0.00 58 1010.4
20260504183701 18 212 14.5 27.4 0.00 0.00 0.00 57 1010.4
20260504183654 18 219 14.5 32.2 0.00 0.00 0.00 54 1010.0
20260504183646 18 210 16.1 27.4 0.00 0.00 0.00 55 1010.1
20260504183642 18 212 16.1 32.2 0.00 0.00 0.00 54 1010.1
20260504183401 18 192 14.5 32.2 0.00 0.00 0.00 54 1010.0
20260504183301 18 209 14.5 32.2 0.00 0.00 0.00 55 1009.9
20260504183201 19 159 12.9 32.2 0.00 0.00 0.00 55 1009.9
20260504183152 19 215 9.7 32.2 0.00 0.00 0.00 54 1009.8
20260504183147 19 197 12.9 32.2 0.00 0.00 0.00 55 1009.9
20260504183143 19 211 11.3 32.2 0.00 0.00 0.00 54 1009.8
20260504182900 19 210 9.7 32.2 0.00 0.00 0.00 53 1009.8
20260504182800 20 236 8.0 32.2 0.00 0.00 0.00 53 1009.8
20260504182700 20 207 6.4 32.2 0.00 0.00 0.00 53 1009.8
20260504182600 20 231 6.4 32.2 0.00 0.00 0.00 52 1009.8
20260504182500 20 202 3.2 24.1 0.00 0.00 0.00 52 1009.7
20260504182429 20 201 3.2 12.9 0.00 0.00 0.00 52 1009.6
20260504182401 20 216 3.2 11.3 0.00 0.00 0.00 51 1009.6
20260504182301 20 207 3.2 9.7 0.00 0.00 0.00 50 1009.4
20260504182201 20 42 1.6 8.0 0.00 0.00 0.00 49 1009.3
20260504182101 20 41 3.2 8.0 0.00 0.00 0.00 49 1009.3
20260504182002 20 41 3.2 8.0 0.00 0.00 0.00 50 1009.2
20260504181900 20 41 3.2 8.0 0.00 0.00 0.00 49 1009.1
20260504181801 20 41 3.2 8.0 0.00 0.00 0.00 49 1009.1
20260504181702 20 41 3.2 8.0 0.00 0.00 0.00 49 1009.1
20260504181601 20 71 3.2 6.4 0.00 0.00 0.00 48 1009.1
20260504181501 20 71 3.2 6.4 0.00 0.00 0.00 48 1009.1
20260504181401 20 71 3.2 6.4 0.00 0.00 0.00 48 1009.1
20260504181301 20 26 3.2 6.4 0.00 0.00 0.00 48 1009.1
20260504181202 20 26 3.2 8.0 0.00 0.00 0.00 48 1009.1
20260504181101 20 24 3.2 11.3 0.00 0.00 0.00 48 1009.1
20260504181001 20 37 3.2 11.3 0.00 0.00 0.00 48 1009.1
20260504180922 20 37 4.8 11.3 0.00 0.00 0.00 47 1009.1
20260504180901 20 38 4.8 11.3 0.00 0.00 0.00 47 1009.1
20260504180801 20 38 4.8 11.3 0.00 0.00 0.00 48 1009.1
20260504180700 20 35 4.8 11.3 0.00 0.00 0.00 47 1009.1
20260504180600 20 19 4.8 11.3 0.00 0.00 0.00 47 1009.1
20260504180500 20 19 4.8 11.3 0.00 0.00 0.00 47 1009.1
20260504180401 20 22 4.8 11.3 0.00 0.00 0.00 47 1009.2
20260504180300 20 22 4.8 11.3 0.00 0.00 0.00 47 1009.1
20260504180200 20 31 4.8 11.3 0.00 0.00 0.00 47 1009.1
20260504180100 20 19 4.8 11.3 0.00 0.00 0.00 47 1009.1
20260504180001 20 13 4.8 11.3 0.00 0.00 0.00 46 1009.1
20260504175922 20 12 4.8 11.3 0.00 0.00 0.00 46 1009.1
20260504175900 20 19 4.8 11.3 0.00 0.00 0.00 46 1009.1
20260504175800 20 20 4.8 11.3 0.00 0.00 0.00 47 1009.1
20260504175700 20 40 3.2 11.3 0.00 0.00 0.00 47 1009.1
20260504175646 20 43 3.2 11.3 0.00 0.00 0.00 47 1009.1
20260504175636 20 20 3.2 11.3 0.00 0.00 0.00 46 1009.1
20260504175632 20 36 3.2 11.3 0.00 0.00 0.00 47 1009.1
20260504175401 20 5 3.2 11.3 0.00 0.00 0.00 47 1009.1
20260504175301 20 21 4.8 11.3 0.00 0.00 0.00 47 1009.1
20260504175201 21 335 4.8 11.3 0.00 0.00 0.00 47 1009.1
20260504175101 21 24 3.2 8.0 0.00 0.00 0.00 46 1009.1
20260504175002 21 36 3.2 8.0 0.00 0.00 0.00 46 1009.1
20260504174901 21 36 3.2 8.0 0.00 0.00 0.00 46 1009.1
20260504174801 21 36 4.8 8.0 0.00 0.00 0.00 46 1009.1
20260504174701 21 28 3.2 8.0 0.00 0.00 0.00 46 1009.0
20260504174600 21 30 3.2 8.0 0.00 0.00 0.00 47 1009.0
20260504174502 21 30 3.2 8.0 0.00 0.00 0.00 46 1009.0
20260504174401 21 16 3.2 8.0 0.00 0.00 0.00 46 1009.0
20260504174301 21 19 3.2 6.4 0.00 0.00 0.00 46 1009.0
20260504174201 21 36 3.2 6.4 0.00 0.00 0.00 46 1009.0
20260504174101 21 44 3.2 6.4 0.00 0.00 0.00 45 1009.0
20260504174001 21 44 3.2 6.4 0.00 0.00 0.00 46 1009.0
20260504173901 21 44 1.6 6.4 0.00 0.00 0.00 46 1009.1
20260504173801 21 25 1.6 6.4 0.00 0.00 0.00 45 1009.0
20260504173701 21 25 1.6 6.4 0.00 0.00 0.00 46 1009.0
20260504173601 21 26 1.6 6.4 0.00 0.00 0.00 46 1009.0
20260504173501 21 25 1.6 6.4 0.00 0.00 0.00 45 1009.0
20260504173400 21 86 1.6 4.8 0.00 0.00 0.00 46 1009.0
20260504173301 21 87 1.6 4.8 0.00 0.00 0.00 46 1009.0
20260504173201 21 87 1.6 3.2 0.00 0.00 0.00 46 1009.0
20260504173100 21 88 1.6 3.2 0.00 0.00 0.00 47 1009.0
20260504173001 21 88 1.6 3.2 0.00 0.00 0.00 46 1009.0
20260504172900 21 88 1.6 3.2 0.00 0.00 0.00 46 1009.0
20260504172801 21 87 1.6 3.2 0.00 0.00 0.00 46 1009.0
20260504172700 21 87 1.6 3.2 0.00 0.00 0.00 46 1009.0
20260504172601 21 87 1.6 3.2 0.00 0.00 0.00 46 1009.0
20260504172501 21 87 1.6 3.2 0.00 0.00 0.00 49 1008.9
20260504172419 21 87 1.6 3.2 0.00 0.00 0.00 49 1008.9
20260504172401 21 87 1.6 3.2 0.00 0.00 0.00 48 1008.9
20260504172303 21 87 1.6 3.2 0.00 0.00 0.00 48 1009.0
20260504172201 21 87 0.0 3.2 0.00 0.00 0.00 47 1009.0
20260504172143 21 87 0.0 3.2 0.00 0.00 0.00 47 1009.0
20260504172135 21 87 0.0 3.2 0.00 0.00 0.00 47 1009.0
20260504172130 21 87 0.0 3.2 0.00 0.00 0.00 47 1009.0
20260504171901 21 87 0.0 3.2 0.00 0.00 0.00 46 1009.0
20260504171800 21 87 1.6 4.8 0.00 0.00 0.00 46 1009.0
20260504171701 21 87 1.6 4.8 0.00 0.00 0.00 47 1009.0
20260504171601 21 87 1.6 4.8 0.00 0.00 0.00 47 1009.0
20260504171501 21 87 1.6 4.8 0.00 0.00 0.00 46 1009.0
20260504171401 21 87 1.6 4.8 0.00 0.00 0.00 46 1009.0
20260504171301 21 87 1.6 4.8 0.00 0.00 0.00 46 1009.0
20260504171201 21 87 1.6 4.8 0.00 0.00 0.00 46 1009.0
20260504171101 21 87 1.6 4.8 0.00 0.00 0.00 45 1009.1
20260504171001 21 87 1.6 4.8 0.00 0.00 0.00 45 1009.0
20260504170901 21 87 1.6 4.8 0.00 0.00 0.00 46 1009.0
20260504170801 21 88 0.0 4.8 0.00 0.00 0.00 47 1009.1
20260504170658 21 88 0.0 4.8 0.00 0.00 0.00 47 1009.1
20260504170558 21 89 0.0 3.2 0.00 0.00 0.00 48 1009.0
20260504170458 21 98 0.0 0.0 0.00 0.00 0.00 47 1009.0
20260504170418 21 98 0.0 0.0 0.00 0.00 0.00 46 1009.1
20260504170358 21 98 0.0 1.6 0.00 0.00 0.00 46 1009.1
20260504170257 21 98 0.0 1.6 0.00 0.00 0.00 46 1009.1
20260504170156 21 98 0.0 1.6 0.00 0.00 0.00 45 1009.1
20260504160402 21 101 1.6 6.4 0.00 0.00 0.00 42 1009.1
20260504160325 21 101 1.6 6.4 0.00 0.00 0.00 42 1009.1
20260504160224 21 103 1.6 6.4 0.00 0.00 0.00 43 1009.1
20260504160122 21 103 1.6 6.4 0.00 0.00 0.00 46 1009.1
20260504151117 23 215 1.6 6.4 0.00 0.00 0.00 41 1009.2
20260504151113 23 80 1.6 6.4 0.00 0.00 0.00 40 1009.2
20260504150758 23 80 1.6 6.4 0.00 0.00 0.00 41 1009.2
20260504150655 23 81 1.6 6.4 0.00 0.00 0.00 40 1009.2
20260504150555 23 81 1.6 6.4 0.00 0.00 0.00 41 1009.2
20260504150456 23 81 1.6 6.4 0.00 0.00 0.00 42 1009.2
20260504150400 23 81 1.6 6.4 0.00 0.00 0.00 40 1009.2
20260504150355 23 81 1.6 6.4 0.00 0.00 0.00 40 1009.2
20260504150256 23 81 1.6 6.4 0.00 0.00 0.00 41 1009.2
20260504150154 23 80 1.6 6.4 0.00 0.00 0.00 41 1009.2
20260504141328 23 86 3.2 11.3 0.00 0.00 0.00 40 1009.5
20260504141229 23 53 3.2 11.3 0.00 0.00 0.00 40 1009.5
20260504141129 23 53 3.2 11.3 0.00 0.00 0.00 41 1009.5
20260504141029 23 53 3.2 11.3 0.00 0.00 0.00 42 1009.5
20260504140929 23 40 3.2 11.3 0.00 0.00 0.00 42 1009.5
20260504140900 23 41 3.2 11.3 0.00 0.00 0.00 42 1009.5
20260504140828 23 41 3.2 11.3 0.00 0.00 0.00 42 1009.6
20260504140726 23 14 3.2 11.3 0.00 0.00 0.00 40 1009.6
20260504140626 23 14 3.2 11.3 0.00 0.00 0.00 42 1009.6
20260504140526 23 10 3.2 11.3 0.00 0.00 0.00 42 1009.7
20260504140426 23 9 3.2 11.3 0.00 0.00 0.00 41 1009.6
20260504140400 23 9 3.2 11.3 0.00 0.00 0.00 42 1009.6
20260504140322 23 0 3.2 9.7 0.00 0.00 0.00 41 1009.7
20260504140221 23 9 3.2 9.7 0.00 0.00 0.00 41 1009.6
20260504140121 23 11 3.2 9.7 0.00 0.00 0.00 41 1009.7
20260504130800 21 0 3.2 8.0 0.00 0.00 0.00 47 1010.0
20260504130700 21 56 3.2 6.4 0.00 0.00 0.00 44 1010.0
20260504130600 21 113 3.2 6.4 0.00 0.00 0.00 43 1010.0
20260504130500 21 63 3.2 6.4 0.00 0.00 0.00 45 1010.1
20260504130400 21 11 3.2 6.4 0.00 0.00 0.00 46 1010.1
20260504130356 21 11 3.2 6.4 0.00 0.00 0.00 46 1010.1
20260504130300 21 11 3.2 6.4 0.00 0.00 0.00 46 1010.1
20260504130201 21 52 1.6 6.4 0.00 0.00 0.00 43 1010.1
20260504120239 22 94 3.2 12.9 0.00 0.00 0.00 42 1010.4
20260504120139 22 94 4.8 12.9 0.00 0.00 0.00 44 1010.4
20260504110630 21 58 6.4 19.3 0.00 0.00 0.00 46 1010.8
20260504110530 21 91 6.4 19.3 0.00 0.00 0.00 45 1010.8
20260504110429 21 121 6.4 19.3 0.00 0.00 0.00 47 1010.8
20260504110353 21 119 6.4 19.3 0.00 0.00 0.00 47 1010.8
20260504110329 21 83 6.4 19.3 0.00 0.00 0.00 47 1010.8
20260504110229 21 57 6.4 19.3 0.00 0.00 0.00 46 1010.8
20260504110129 21 84 6.4 19.3 0.00 0.00 0.00 46 1010.8
20260504100608 20 117 4.8 14.5 0.00 0.00 0.00 47 1011.5
20260504100602 20 95 4.8 14.5 0.00 0.00 0.00 48 1011.5
20260504100558 20 171 4.8 14.5 0.00 0.00 0.00 47 1011.5
20260504100317 20 106 4.8 14.5 0.00 0.00 0.00 47 1011.5
20260504100217 20 108 4.8 14.5 0.00 0.00 0.00 49 1011.6
20260504100117 20 118 4.8 14.5 0.00 0.00 0.00 47 1011.5
20260504082002 17 91 1.6 6.4 0.00 0.00 0.00 54 1012.6
20260504081901 17 91 1.6 6.4 0.00 0.00 0.00 54 1012.6
20260504081801 17 91 1.6 6.4 0.00 0.00 0.00 57 1012.6
20260504081701 17 95 3.2 6.4 0.00 0.00 0.00 56 1012.6
20260504081600 17 95 3.2 6.4 0.00 0.00 0.00 55 1012.6
20260504081500 17 89 3.2 6.4 0.00 0.00 0.00 56 1012.6
20260504081400 17 81 1.6 6.4 0.00 0.00 0.00 54 1012.6
20260504081329 17 115 1.6 6.4 0.00 0.00 0.00 54 1012.6
20260504081300 17 117 1.6 6.4 0.00 0.00 0.00 56 1012.6
20260504081200 17 73 1.6 6.4 0.00 0.00 0.00 57 1012.6
20260504081057 17 76 1.6 6.4 0.00 0.00 0.00 57 1012.6
20260504080957 17 89 1.6 6.4 0.00 0.00 0.00 55 1012.7
20260504080857 16 78 1.6 6.4 0.00 0.00 0.00 56 1012.6
20260504080829 16 65 1.6 6.4 0.00 0.00 0.00 56 1012.7
20260504080757 16 133 1.6 6.4 0.00 0.00 0.00 57 1012.7
20260504080656 16 132 1.6 6.4 0.00 0.00 0.00 57 1012.7
20260504080551 16 129 1.6 6.4 0.00 0.00 0.00 56 1012.7
20260504080451 16 129 1.6 6.4 0.00 0.00 0.00 58 1012.7
20260504080333 16 129 1.6 6.4 0.00 0.00 0.00 58 1012.7
20260504080251 16 129 1.6 6.4 0.00 0.00 0.00 59 1012.7
20260504080151 16 129 1.6 6.4 0.00 0.00 0.00 58 1012.7
20260504070329 16 243 0.0 8.0 0.00 0.00 0.00 62 1012.9
20260504070321 15 243 0.0 8.0 0.00 0.00 0.00 62 1012.9
20260504070220 16 108 0.0 3.2 0.00 0.00 0.00 61 1012.8
20260504070121 15 108 0.0 3.2 0.00 0.00 0.00 61 1012.8
20260504060248 12 92 1.6 3.2 0.00 0.00 0.00 73 1012.8
20260504060143 12 92 1.6 4.8 0.00 0.00 0.00 72 1012.8